DW2235 Redondo PT current weather conditions

sailwx.info

Wind from 225 at 1 knots gusting 3

Air temperature 7.8° C
Dewpoint -6.7° C

Last reported at 2018-Feb-22 23:02 UTC.
Time now 2018-Feb-22 23:20 UTC

Location: N 38°39' W 007°33'.
View on Google Maps.

See reports from other nearby stations

  
Tides and Currents Weather Stations Pressure Air Temp Water Temp Dewpoint Dewpoint Depression Visibility Wind Speed Wind Dir Waves Ship Positions
date/time (UTC)wind fromknots sea level pressurealtimeterstation pressurevisibilityair tempwater tempwave heightnotes
2018-Feb-22 23:02 225 1 gusting 3 7.8
2018-Feb-22 22:57 202 1 gusting 2 7.8
2018-Feb-22 22:52 225 2 gusting 3 8.3
2018-Feb-22 22:47 248 2 gusting 3 8.3
2018-Feb-22 22:42 292 1 gusting 4 10.0
2018-Feb-22 22:37 338 1 gusting 4 10.0
2018-Feb-22 22:32 338 2 gusting 3 10.0
2018-Feb-22 22:27 338 3 gusting 3 10.0
2018-Feb-22 22:22 338 3 gusting 2 9.4
2018-Feb-22 22:17 338 1 gusting 3 9.4
2018-Feb-22 22:12 338 1 gusting 3 9.4
2018-Feb-22 22:07 338 1 gusting 3 9.4
2018-Feb-22 22:02 338 1 9.4
2018-Feb-22 21:17 338 1 gusting 2 10.0
2018-Feb-22 21:12 338 1 gusting 3 10.0
2018-Feb-22 21:07 338 1 gusting 3 10.0
2018-Feb-22 21:02 338 1 gusting 3 10.6
2018-Feb-22 20:57 338 1 gusting 3 10.6
2018-Feb-22 20:52 315 2 gusting 2 10.6
2018-Feb-22 20:47 315 2 gusting 2 10.6
2018-Feb-22 20:42 292 2 gusting 2 10.6
2018-Feb-22 20:37 338 1 gusting 2 10.6
2018-Feb-22 20:32 338 1 gusting 3 10.6
2018-Feb-22 20:27 338 1 gusting 3 10.6
2018-Feb-22 20:22 315 1 gusting 4 11.1
2018-Feb-22 20:17 338 1 gusting 5 11.1
2018-Feb-22 20:12 338 1 gusting 5 11.1
2018-Feb-22 20:07 338 2 gusting 5 11.1
2018-Feb-22 20:02 11.1
2018-Feb-22 19:57 11.1
2018-Feb-22 19:52 338 3 gusting 4 11.1
2018-Feb-22 19:47 338 3 gusting 4 11.1
2018-Feb-22 19:42 338 2 gusting 4 11.1
2018-Feb-22 19:37 315 2 gusting 4 11.1
2018-Feb-22 19:32 10.6
2018-Feb-22 19:27 338 1 gusting 3 10.6
2018-Feb-22 19:22 338 2 gusting 4 10.6
2018-Feb-22 19:17 292 3 gusting 5 11.1
2018-Feb-22 19:12 315 1 gusting 5 11.1
2018-Feb-22 19:07 338 2 gusting 5 11.1
2018-Feb-22 19:02 338 4 gusting 5 11.7
2018-Feb-22 18:57 11.7
2018-Feb-22 18:52 338 4 gusting 3 11.7
2018-Feb-22 18:47 11.7
2018-Feb-22 18:42 315 2 gusting 3 11.7
2018-Feb-22 18:37 338 2 gusting 3 11.7
2018-Feb-22 18:32 315 1 gusting 4 11.7
2018-Feb-22 18:27 315 2 gusting 4 12.2
2018-Feb-22 18:22 315 2 gusting 5 12.2
2018-Feb-22 18:17 315 2 gusting 5 12.8
2018-Feb-22 18:12 338 2 gusting 5 12.8
2018-Feb-22 18:07 338 2 gusting 5 12.8
2018-Feb-22 18:02 338 2 gusting 5 13.3
2018-Feb-22 17:57 13.3
2018-Feb-22 17:52 292 3 gusting 6 13.9
2018-Feb-22 17:47 338 3 gusting 6 13.9
2018-Feb-22 17:42 315 3 gusting 6 13.9
2018-Feb-22 17:37 338 4 gusting 6 14.4
2018-Feb-22 17:32 338 5 gusting 6 14.4
2018-Feb-22 17:27 14.4
2018-Feb-22 17:22 14.4
2018-Feb-22 17:17 14.4
2018-Feb-22 17:12 022 3 gusting 6 14.4
2018-Feb-22 17:07 15.0
2018-Feb-22 17:02 338 3 gusting 6 15.0
2018-Feb-22 16:57 068 3 gusting 6 15.0
2018-Feb-22 16:52 315 2 gusting 6 15.0
2018-Feb-22 16:47 248 2 gusting 6 15.0
2018-Feb-22 16:42 292 5 gusting 4 15.6
2018-Feb-22 16:37 158 1 gusting 4 15.0
2018-Feb-22 16:32 112 0 gusting 4 15.0
2018-Feb-22 16:27 202 2 gusting 4 15.0
2018-Feb-22 16:22 158 1 gusting 3 15.0
2018-Feb-22 16:17 202 2 gusting 4 14.4
2018-Feb-22 16:12 068 0 gusting 5 15.0
2018-Feb-22 16:07 022 15.0
2018-Feb-22 16:02 248 3 gusting 4 14.4
2018-Feb-22 15:57 202 2 gusting 5 15.0
2018-Feb-22 15:52 248 1 gusting 7 15.0
2018-Feb-22 15:47 248 1 gusting 7 14.4
2018-Feb-22 15:42 248 2 gusting 3 14.4
2018-Feb-22 15:37 248 2 gusting 3 15.0
2018-Feb-22 15:32 248 0 gusting 4 15.0
2018-Feb-22 15:27 022 1 gusting 4 14.4
2018-Feb-22 15:22 068 1 gusting 4 14.4
2018-Feb-22 15:17 112 2 gusting 5 14.4
2018-Feb-22 15:12 022 2 gusting 5 14.4
2018-Feb-22 15:07 315 2 gusting 5 14.4
2018-Feb-22 15:02 315 1 gusting 5 14.4
2018-Feb-22 14:57 202 3 gusting 5 14.4
2018-Feb-22 14:52 248 3 gusting 5 14.4
2018-Feb-22 14:47 338 0 gusting 5 14.4
2018-Feb-22 14:42 022 1 gusting 6 14.4
2018-Feb-22 14:37 292 1 gusting 6 13.9
2018-Feb-22 14:32 292 3 gusting 6 13.9
2018-Feb-22 14:27 338 3 gusting 6 13.9
2018-Feb-22 14:22 202 2 gusting 6 14.4
2018-Feb-22 14:17 180 2 gusting 6 13.9
2018-Feb-22 14:12 315 1 gusting 5 13.3
2018-Feb-22 14:07 315 4 gusting 5 13.3
2018-Feb-22 14:02 068 3 gusting 4 13.3
2018-Feb-22 13:57 045 2 gusting 4 13.3
2018-Feb-22 13:52 338 13.3
2018-Feb-22 13:47 202 2 gusting 5 13.3
2018-Feb-22 13:42 202 2 gusting 5 12.8
2018-Feb-22 13:37 292 3 gusting 5 12.8
2018-Feb-22 13:32 202 3 gusting 6 12.8
2018-Feb-22 13:27 248 1 gusting 6 12.8
2018-Feb-22 13:22 202 1 gusting 6 12.8
2018-Feb-22 13:17 158 2 gusting 4 13.3
2018-Feb-22 13:12 112 4 gusting 5 12.8
2018-Feb-22 13:07 202 1 gusting 5 12.8
2018-Feb-22 13:02 158 3 gusting 5 12.8
2018-Feb-22 12:57 068 2 gusting 6 12.2
2018-Feb-22 12:52 112 3 gusting 6 12.2
2018-Feb-22 12:47 158 3 gusting 6 12.8
2018-Feb-22 12:42 158 4 gusting 6 12.2
2018-Feb-22 12:37 158 3 gusting 6 12.2
2018-Feb-22 12:32 202 4 gusting 7 11.7
2018-Feb-22 12:27 158 3 gusting 7 11.7
2018-Feb-22 12:22 112 3 gusting 6 11.7
2018-Feb-22 12:17 112 3 gusting 6 11.7
2018-Feb-22 12:12 158 6 gusting 6 11.7
2018-Feb-22 12:07 135 3 gusting 6 11.7
2018-Feb-22 12:02 112 3 gusting 7 11.7
2018-Feb-22 11:57 112 3 gusting 7 11.7
2018-Feb-22 11:52 158 4 gusting 7 11.1
2018-Feb-22 11:47 112 3 gusting 7 11.1
2018-Feb-22 11:42 112 4 gusting 6 11.1
2018-Feb-22 11:37 022 1 gusting 6 11.1
2018-Feb-22 11:32 112 1 gusting 6 11.1
2018-Feb-22 11:27 112 3 gusting 6 10.6
2018-Feb-22 11:22 068 4 gusting 6 10.6
2018-Feb-22 11:17 068 2 gusting 6 10.0
2018-Feb-22 11:12 068 6 gusting 6 10.0
2018-Feb-22 11:07 112 1 gusting 6 10.0
2018-Feb-22 11:02 068 2 gusting 6 10.0
2018-Feb-22 10:57 068 5 gusting 6 10.0
2018-Feb-22 10:52 068 3 gusting 7 10.0
2018-Feb-22 10:47 112 3 gusting 7 9.4
2018-Feb-22 10:42 068 4 gusting 7 9.4
2018-Feb-22 10:37 068 4 gusting 6 9.4
2018-Feb-22 10:32 090 3 gusting 9 9.4
2018-Feb-22 10:27 112 5 gusting 9 9.4
2018-Feb-22 10:22 112 3 gusting 10 8.9
2018-Feb-22 10:17 068 5 gusting 10 8.9
2018-Feb-22 10:12 068 6 gusting 9 8.9
2018-Feb-22 10:07 068 7 gusting 7 8.9
2018-Feb-22 10:02 068 6 gusting 7 8.3
2018-Feb-22 09:57 068 5 gusting 8 8.3
2018-Feb-22 09:52 068 5 gusting 8 8.3
2018-Feb-22 09:47 068 5 gusting 9 7.8
2018-Feb-22 09:42 068 6 gusting 9 7.8
2018-Feb-22 09:37 068 5 gusting 10 7.8
2018-Feb-22 09:32 090 6 gusting 10 7.8
2018-Feb-22 09:27 068 8 gusting 10 7.2
2018-Feb-22 09:22 090 6 gusting 10 7.2
2018-Feb-22 09:17 068 7 gusting 11 7.2
2018-Feb-22 09:12 068 6 gusting 11 6.7
2018-Feb-22 09:07 068 7 gusting 9 6.7
2018-Feb-22 09:02 068 7 gusting 9 6.7
2018-Feb-22 08:57 068 6 gusting 8 6.1
2018-Feb-22 08:52 090 7 gusting 8 6.1
2018-Feb-22 08:47 068 6 gusting 8 6.1
2018-Feb-22 08:42 068 5 gusting 8 6.1
2018-Feb-22 08:37 068 5 gusting 6 5.6
2018-Feb-22 08:32 068 6 gusting 6 5.6
2018-Feb-22 08:27 068 6 gusting 6 5.6
2018-Feb-22 08:22 068 5 gusting 6 5.6
2018-Feb-22 08:17 068 5 gusting 6 5.0
2018-Feb-22 08:12 068 4 gusting 6 5.0
2018-Feb-22 08:07 068 5 gusting 5 5.0
2018-Feb-22 08:02 068 5 gusting 5 5.0
2018-Feb-22 07:57 068 5 gusting 4 5.0
2018-Feb-22 07:52 068 5 gusting 4 5.0
2018-Feb-22 07:47 068 3 gusting 5 5.0
2018-Feb-22 07:42 068 2 gusting 5 5.0
2018-Feb-22 07:37 068 2 gusting 5 4.4
2018-Feb-22 07:27 068 4 gusting 5 4.4
2018-Feb-22 07:22 112 3 gusting 5 4.4
2018-Feb-22 07:17 045 0 gusting 6 4.4
2018-Feb-22 07:12 068 2 gusting 6 4.4
2018-Feb-22 07:07 068 4 gusting 5 4.4
2018-Feb-22 07:02 068 3 gusting 5 4.4
2018-Feb-22 06:57 022 5 gusting 5 4.4
2018-Feb-22 06:52 045 5 gusting 6 4.4
2018-Feb-22 06:47 022 5 gusting 6 4.4
2018-Feb-22 06:42 022 5 gusting 6 4.4
2018-Feb-22 06:37 022 3 gusting 5 4.4
2018-Feb-22 06:32 022 5 gusting 5 4.4
2018-Feb-22 06:27 045 3 gusting 5 4.4
2018-Feb-22 06:22 022 3 gusting 5 4.4
2018-Feb-22 06:17 022 3 gusting 4 4.4
2018-Feb-22 06:12 045 2 gusting 4 4.4
2018-Feb-22 06:07 068 1 gusting 5 4.4
2018-Feb-22 06:02 090 2 gusting 5 5.0
2018-Feb-22 05:57 022 2 gusting 7 5.0
2018-Feb-22 05:52 068 3 gusting 7 5.0
2018-Feb-22 05:47 022 3 gusting 7 5.0
2018-Feb-22 05:42 068 4 gusting 7 5.0
2018-Feb-22 05:37 068 5 gusting 9 5.0
2018-Feb-22 05:32 022 5 gusting 9 5.0
2018-Feb-22 05:27 068 5 gusting 8 5.0
2018-Feb-22 05:22 090 6 gusting 8 5.0
2018-Feb-22 05:17 068 8 gusting 6 5.0
2018-Feb-22 05:12 068 6 gusting 6 5.0
2018-Feb-22 05:07 068 5 gusting 7 5.0
2018-Feb-22 05:02 068 6 gusting 7 5.0
2018-Feb-22 04:57 068 5 gusting 7 5.6
2018-Feb-22 04:52 068 6 gusting 8 5.6
2018-Feb-22 04:47 068 6 gusting 8 5.6
2018-Feb-22 04:42 068 6 gusting 8 6.1
2018-Feb-22 04:37 068 7 gusting 8 6.1
2018-Feb-22 04:32 068 6 gusting 7 6.1
2018-Feb-22 04:27 068 5 gusting 7 6.1
2018-Feb-22 04:22 068 5 gusting 8 6.1
2018-Feb-22 04:17 022 5 gusting 8 6.1
2018-Feb-22 04:12 045 6 gusting 7 6.7
2018-Feb-22 04:07 068 6 gusting 7 6.7
2018-Feb-22 04:02 068 6 gusting 7 6.7
2018-Feb-22 03:57 090 6 gusting 5 6.1
2018-Feb-22 03:52 068 5 gusting 8 6.1
2018-Feb-22 03:47 068 3 gusting 8 6.1
2018-Feb-22 03:42 068 3 gusting 8 6.1
2018-Feb-22 03:37 068 6 gusting 8 6.7
2018-Feb-22 03:32 068 6 gusting 10 6.7
2018-Feb-22 03:27 068 5 gusting 10 6.7
2018-Feb-22 03:22 022 6 gusting 11 6.7
2018-Feb-22 03:17 068 5 gusting 11 6.7
2018-Feb-22 03:12 068 6 gusting 11 6.7
2018-Feb-22 03:07 022 6 gusting 11 6.7
2018-Feb-22 03:02 022 7 gusting 11 6.7
2018-Feb-22 02:57 022 9 gusting 11 6.7
2018-Feb-22 02:52 022 8 gusting 9 6.7
2018-Feb-22 02:47 068 7 gusting 9 6.7
2018-Feb-22 02:42 022 5 gusting 8 6.7
2018-Feb-22 02:37 068 6 gusting 8 6.1
2018-Feb-22 02:32 068 6 gusting 7 6.7
2018-Feb-22 02:27 068 6 gusting 7 6.7
2018-Feb-22 02:22 068 5 gusting 9 6.7
2018-Feb-22 02:17 068 6 gusting 9 6.7
2018-Feb-22 02:12 068 6 gusting 7 6.7
2018-Feb-22 02:07 068 6 gusting 7 6.7
2018-Feb-22 02:02 068 6 gusting 7 6.7
2018-Feb-22 01:57 068 6 gusting 9 6.7
2018-Feb-22 01:52 068 5 gusting 9 7.2
2018-Feb-22 01:47 068 5 gusting 9 7.2
2018-Feb-22 01:42 068 5 gusting 8 7.2
2018-Feb-22 01:37 022 5 gusting 8 7.2
2018-Feb-22 01:32 068 6 gusting 6 7.2
2018-Feb-22 01:27 068 6 gusting 6 7.2
2018-Feb-22 01:22 068 4 gusting 6 7.2
2018-Feb-22 01:17 068 4 gusting 6 7.2
2018-Feb-22 01:12 068 5 gusting 7 7.2
2018-Feb-22 01:07 068 4 gusting 7 7.2
2018-Feb-22 01:02 068 5 gusting 7 7.2
2018-Feb-22 00:57 022 6 gusting 7 7.2
2018-Feb-22 00:52 068 5 gusting 9 7.2
2018-Feb-22 00:47 045 5 gusting 9 7.2
2018-Feb-22 00:42 045 5 gusting 8 7.2
2018-Feb-22 00:37 022 5 gusting 8 7.2
2018-Feb-22 00:32 045 6 gusting 8 7.8
2018-Feb-22 00:27 068 6 gusting 8 7.8
2018-Feb-22 00:22 022 5 gusting 8 7.8
2018-Feb-22 00:17 068 6 gusting 8 7.8
2018-Feb-22 00:12 068 6 gusting 9 7.8
2018-Feb-22 00:07 068 6 gusting 9 7.8
2018-Feb-22 00:02 068 6 gusting 9 7.8
2018-Feb-21 23:57 068 6 gusting 9 7.8
2018-Feb-21 23:52 112 7 gusting 8 7.8
2018-Feb-21 23:47 045 6 gusting 8 8.3
2018-Feb-21 23:42 068 6 gusting 11 8.3
2018-Feb-21 23:37 045 6 gusting 11 8.3
2018-Feb-21 23:32 068 6 gusting 11 8.3
2018-Feb-21 23:27 022 6 gusting 11 8.3
2018-Feb-21 23:22 090 7 gusting 12 8.3
2018-Feb-21 23:17 045 7 gusting 13 8.9
2018-Feb-21 23:12 022 7 gusting 13 8.9
2018-Feb-21 23:07 022 7 gusting 13 8.9
2018-Feb-21 23:02 022 7 gusting 13 8.9
2018-Feb-21 22:57 068 12 gusting 13 8.9
2018-Feb-21 22:52 068 7 gusting 16 9.4
2018-Feb-21 22:47 022 11 gusting 16 9.4
2018-Feb-21 22:42 045 9 gusting 16 9.4
2018-Feb-21 22:37 022 11 gusting 13 9.4
2018-Feb-21 22:32 022 9 gusting 14 9.4
2018-Feb-21 22:27 045 10 gusting 14 9.4
2018-Feb-21 22:22 022 9 gusting 15 9.4
2018-Feb-21 22:17 045 11 gusting 15 9.4
2018-Feb-21 22:12 022 13 gusting 15 10.0
2018-Feb-21 22:07 045 8 gusting 15 10.0
2018-Feb-21 22:02 022 10 gusting 17 10.0
2018-Feb-21 21:57 022 13 gusting 17 10.0
2018-Feb-21 21:52 022 14 gusting 18 10.0
2018-Feb-21 21:47 022 11 gusting 18 10.0
2018-Feb-21 21:42 022 13 gusting 19 10.0
2018-Feb-21 21:37 022 12 gusting 19 10.6
2018-Feb-21 21:32 022 9 gusting 19 10.6
2018-Feb-21 21:27 045 13 gusting 19 10.6
2018-Feb-21 21:22 068 13 gusting 22 10.6
2018-Feb-21 21:17 022 11 gusting 22 10.6
2018-Feb-21 21:12 10.6
2018-Feb-21 21:07 022 15 gusting 17 10.6
2018-Feb-21 21:02 022 12 gusting 17 10.6
2018-Feb-21 20:57 022 12 gusting 17 10.6
2018-Feb-21 20:52 022 11 gusting 17 11.1
2018-Feb-21 20:47 068 11 gusting 17 11.1
2018-Feb-21 20:42 022 9 gusting 15 11.1
2018-Feb-21 20:37 045 11 gusting 15 11.1
2018-Feb-21 20:32 022 11 gusting 15 11.1
2018-Feb-21 20:27 022 13 gusting 15 11.1
2018-Feb-21 20:22 022 12 gusting 15 11.1
2018-Feb-21 20:17 022 10 gusting 13 11.1
2018-Feb-21 20:12 022 10 gusting 13 11.1
2018-Feb-21 20:07 022 7 gusting 13 11.1
2018-Feb-21 20:02 068 7 gusting 9 11.1
2018-Feb-21 19:57 045 7 gusting 13 11.1
2018-Feb-21 19:52 022 6 gusting 13 11.7
2018-Feb-21 19:47 338 10 gusting 13 11.7
2018-Feb-21 19:42 022 7 gusting 13 11.7
2018-Feb-21 19:22 022 6 gusting 12 11.7
2018-Feb-21 19:07 022 6 gusting 11 12.2
2018-Feb-21 19:02 022 7 gusting 11 12.2
2018-Feb-21 18:52 022 8 gusting 13 12.8
2018-Feb-21 18:47 022 6 gusting 13 12.8
2018-Feb-21 18:37 022 6 gusting 14 12.8
2018-Feb-21 18:22 068 12 gusting 17 13.3
2018-Feb-21 18:12 045 12 gusting 15 13.3
2018-Feb-21 18:07 022 10 gusting 15 13.9
2018-Feb-21 17:57 068 9 gusting 17 13.9
2018-Feb-21 17:52 022 9 gusting 17 14.4
2018-Feb-21 17:47 022 9 gusting 17 14.4
2018-Feb-21 17:42 068 12 gusting 19 14.4
2018-Feb-21 17:37 045 10 gusting 19 14.4
2018-Feb-21 17:32 022 9 gusting 19 14.4
2018-Feb-21 17:27 022 11 gusting 19 14.4
2018-Feb-21 17:22 022 11 gusting 17 15.0
2018-Feb-21 17:17 068 9 gusting 17 15.0
2018-Feb-21 17:12 022 11 gusting 19 15.0
2018-Feb-21 17:07 022 9 gusting 19 15.0
2018-Feb-21 17:02 068 13 gusting 18 15.6
2018-Feb-21 16:57 022 13 gusting 16 15.6
2018-Feb-21 16:52 022 7 gusting 18 15.6
2018-Feb-21 16:47 112 13 gusting 18 15.6
2018-Feb-21 16:42 022 11 gusting 18 15.6
2018-Feb-21 16:37 068 13 gusting 18 15.6
2018-Feb-21 16:32 022 10 gusting 15 16.1
2018-Feb-21 16:27 022 14 gusting 15 16.1
2018-Feb-21 16:22 022 8 gusting 16 16.1
2018-Feb-21 16:17 022 12 gusting 16 16.1
2018-Feb-21 16:12 022 7 gusting 17 16.1
2018-Feb-21 16:07 022 10 gusting 17 16.1
2018-Feb-21 16:02 022 9 gusting 17 16.1
2018-Feb-21 15:57 022 8 gusting 14 16.1
2018-Feb-21 15:52 022 9 gusting 12 16.1
2018-Feb-21 15:47 16.1
2018-Feb-21 15:42 022 7 gusting 12 16.1
2018-Feb-21 15:37 022 7 gusting 18 16.1
2018-Feb-21 15:32 045 7 gusting 18 16.1
2018-Feb-21 15:27 022 8 gusting 18 16.1
2018-Feb-21 15:22 068 7 gusting 12 16.1
2018-Feb-21 15:17 068 6 gusting 14 16.1
2018-Feb-21 14:42 022 8 gusting 15 15.6
2018-Feb-21 14:32 022 9 gusting 12 15.6
2018-Feb-21 14:22 338 8 gusting 14 15.6
2018-Feb-21 14:17 022 9 gusting 14 15.6
2018-Feb-21 14:02 022 7 gusting 18 15.6
2018-Feb-21 13:57 022 9 gusting 18 15.6
2018-Feb-21 13:47 068 9 gusting 14 15.0
2018-Feb-21 13:42 15.0
2018-Feb-21 13:37 068 9 gusting 16 15.0
2018-Feb-21 13:32 15.0
2018-Feb-21 13:27 022 8 gusting 16 14.4
2018-Feb-21 13:17 068 11 gusting 17 14.4
2018-Feb-21 13:07 068 8 gusting 17 14.4
2018-Feb-21 13:02 022 13 gusting 16 14.4
2018-Feb-21 12:57 022 9 gusting 17 14.4
2018-Feb-21 12:52 14.4
2018-Feb-21 12:37 022 12 gusting 19 13.9
2018-Feb-21 12:32 022 10 gusting 19 13.9
2018-Feb-21 12:27 022 13 gusting 19 13.9
2018-Feb-21 12:22 13.9
2018-Feb-21 12:17 022 13 gusting 17 13.9
2018-Feb-21 12:12 022 13 gusting 17 13.9
2018-Feb-21 12:02 022 8 gusting 19 13.3
2018-Feb-21 11:52 022 10 gusting 19 13.3
2018-Feb-21 11:47 022 14 gusting 19 13.3
2018-Feb-21 11:37 022 14 gusting 19 13.3
2018-Feb-21 11:22 022 14 gusting 18 13.3
2018-Feb-21 11:07 022 13 gusting 19 13.3
2018-Feb-21 10:52 045 12 gusting 19 13.3
2018-Feb-21 10:47 068 13 gusting 19 13.3
2018-Feb-21 10:42 068 12 gusting 19 12.8
2018-Feb-21 10:37 022 11 gusting 22 12.8
2018-Feb-21 10:32 068 12 gusting 22 12.8
2018-Feb-21 10:27 338 13 gusting 22 12.8
2018-Feb-21 10:22 022 12 gusting 21 12.8
2018-Feb-21 10:17 022 13 gusting 21 12.8
2018-Feb-21 10:12 022 18 gusting 19 12.2
2018-Feb-21 10:07 022 11 gusting 19 12.2
2018-Feb-21 10:02 068 11 gusting 13 12.2
2018-Feb-21 09:57 022 10 gusting 13 12.2
2018-Feb-21 09:47 022 10 gusting 13 12.2
2018-Feb-21 09:42 045 9 gusting 12 12.2
2018-Feb-21 09:37 068 9 gusting 12 11.7
2018-Feb-21 09:27 068 6 gusting 12 11.7
2018-Feb-21 09:22 022 7 gusting 12 11.1
2018-Feb-21 09:17 022 8 gusting 12 11.1
2018-Feb-21 09:12 022 8 gusting 10 11.1
2018-Feb-21 09:07 068 9 gusting 9 11.1
2018-Feb-21 09:02 022 6 gusting 9 10.6
2018-Feb-21 08:57 068 6 gusting 9 10.6
2018-Feb-21 08:52 068 5 gusting 9 10.6
2018-Feb-21 08:47 068 4 gusting 9 10.6
2018-Feb-21 08:42 068 4 gusting 8 10.0
2018-Feb-21 08:37 068 6 gusting 8 10.0
2018-Feb-21 08:32 068 4 gusting 7 10.0
2018-Feb-21 08:27 022 6 gusting 7 10.0
2018-Feb-21 08:22 068 6 gusting 9 9.4
2018-Feb-21 08:17 045 6 gusting 9 9.4
2018-Feb-21 08:12 022 8 gusting 9 9.4
2018-Feb-21 08:07 022 5 gusting 11 9.4
2018-Feb-21 08:02 068 6 gusting 11 9.4
2018-Feb-21 07:58 045 8 gusting 11 9.4
2018-Feb-21 07:52 022 7 gusting 13 9.4
2018-Feb-21 07:47 068 8 gusting 13 9.4
2018-Feb-21 07:42 022 7 gusting 13 9.4
2018-Feb-21 07:37 022 8 gusting 13 9.4
2018-Feb-21 07:32 022 10 gusting 11 9.4
2018-Feb-21 07:27 022 7 gusting 11 8.9
2018-Feb-21 07:22 022 6 gusting 3 8.9
2018-Feb-21 07:17 022 3 gusting 3 8.9
2018-Feb-21 07:12 068 2 gusting 3 8.9
2018-Feb-21 07:07 068 1 gusting 3 8.9
2018-Feb-21 07:02 068 2 gusting 3 8.9
2018-Feb-21 06:57 068 3 gusting 3 8.9
2018-Feb-21 06:52 068 3 gusting 3 9.4
2018-Feb-21 06:47 068 2 gusting 3 9.4
2018-Feb-21 06:42 045 3 gusting 3 9.4
2018-Feb-21 06:37 022 2 gusting 4 9.4
2018-Feb-21 06:32 068 0 gusting 4 9.4
2018-Feb-21 06:27 068 2 gusting 9 9.4
2018-Feb-21 06:22 022 3 gusting 9 9.4
2018-Feb-21 06:17 045 1 gusting 9 9.4
2018-Feb-21 06:12 022 2 gusting 9 9.4
2018-Feb-21 06:07 068 5 gusting 10 9.4
2018-Feb-21 06:02 022 6 gusting 10 9.4
2018-Feb-21 05:57 022 7 gusting 10 9.4
2018-Feb-21 05:52 022 7 gusting 10 9.4
2018-Feb-21 05:47 022 7 gusting 10 9.4
2018-Feb-21 05:42 022 8 gusting 9 9.4
2018-Feb-21 05:37 068 8 gusting 9 9.4
2018-Feb-21 05:32 068 5 gusting 13 9.4
2018-Feb-21 05:27 022 6 gusting 13 10.0
2018-Feb-21 05:22 022 7 gusting 12 10.0
2018-Feb-21 05:17 022 9 gusting 12 10.0
2018-Feb-21 05:12 022 8 gusting 11 10.0
2018-Feb-21 05:07 022 7 gusting 16 10.0
2018-Feb-21 05:02 022 7 gusting 16 10.0
2018-Feb-21 04:57 022 7 gusting 16 10.0
2018-Feb-21 04:52 022 6 gusting 16 10.0
2018-Feb-21 04:47 045 7 gusting 16 10.0
2018-Feb-21 04:42 045 13 gusting 14 10.0
2018-Feb-21 04:37 022 7 gusting 14 9.4
2018-Feb-21 04:32 022 8 gusting 11 9.4
2018-Feb-21 04:27 022 9 gusting 11 9.4
2018-Feb-21 04:22 022 9 gusting 9 9.4
2018-Feb-21 04:17 022 6 gusting 9 9.4
2018-Feb-21 04:12 045 6 gusting 13 9.4
2018-Feb-21 04:07 022 8 gusting 13 9.4
2018-Feb-21 04:02 022 6 gusting 8 9.4
2018-Feb-21 03:57 022 7 gusting 7 9.4
2018-Feb-21 03:52 022 6 gusting 8 9.4
2018-Feb-21 03:47 022 5 gusting 8 9.4
2018-Feb-21 03:42 022 6 gusting 8 9.4
2018-Feb-21 03:37 022 7 gusting 9 9.4
2018-Feb-21 03:32 068 6 gusting 9 9.4
2018-Feb-21 03:27 022 6 gusting 9 9.4
2018-Feb-21 03:22 022 6 gusting 10 9.4
2018-Feb-21 03:17 022 6 10.0
2018-Feb-21 03:12 022 7 gusting 11 10.0
2018-Feb-21 03:07 022 7 gusting 11 10.0
2018-Feb-21 03:02 045 7 gusting 11 10.0
2018-Feb-21 02:57 022 7 gusting 11 10.0
2018-Feb-21 02:52 022 7 gusting 11 10.0
2018-Feb-21 02:47 022 7 gusting 11 10.0
2018-Feb-21 02:42 022 7 gusting 9 10.0
2018-Feb-21 02:37 022 9 gusting 7 10.0
2018-Feb-21 02:32 022 7 gusting 9 10.0
2018-Feb-21 02:27 045 3 gusting 9 10.0
2018-Feb-21 02:22 068 4 gusting 9 10.0
2018-Feb-21 02:17 068 6 gusting 9 10.0
2018-Feb-21 02:12 068 4 gusting 6 10.0
2018-Feb-21 02:07 068 5 gusting 6 10.0
2018-Feb-21 02:02 022 4 gusting 8 10.0
2018-Feb-21 01:57 022 4 gusting 8 10.6
2018-Feb-21 01:52 068 5 gusting 6 10.6
2018-Feb-21 01:47 022 6 gusting 6 10.6
2018-Feb-21 01:42 068 5 gusting 6 10.6
2018-Feb-21 01:37 045 3 gusting 6 10.6
2018-Feb-21 01:32 068 4 gusting 6 10.6
2018-Feb-21 01:27 068 5 gusting 6 10.6
2018-Feb-21 01:22 068 5 gusting 7 11.1
2018-Feb-21 01:17 068 3 gusting 7 11.1
2018-Feb-21 01:12 068 5 gusting 11 11.1
2018-Feb-21 01:07 045 4 gusting 11 11.1
2018-Feb-21 01:02 022 4 gusting 11 11.1
2018-Feb-21 00:57 090 5 gusting 11 11.1
2018-Feb-21 00:52 045 5 gusting 11 11.7
2018-Feb-21 00:47 022 8 gusting 11 11.7
2018-Feb-21 00:42 11.7
2018-Feb-21 00:37 022 6 gusting 11 11.7
2018-Feb-21 00:32 022 6 gusting 11 11.7
2018-Feb-21 00:27 022 6 gusting 11 11.7
2018-Feb-21 00:22 068 7 gusting 11 11.7
2018-Feb-21 00:17 022 9 gusting 11 11.7
2018-Feb-21 00:12 022 6 gusting 7 11.7
2018-Feb-21 00:07 11.7
2018-Feb-21 00:02 022 6 gusting 9 11.7
2018-Feb-20 23:57 022 3 gusting 12 12.2
2018-Feb-20 23:52 022 6 gusting 15 12.2
2018-Feb-20 23:47 022 7 gusting 15 12.2
2018-Feb-20 23:42 045 8 gusting 12 12.8
2018-Feb-20 23:37 022 12 gusting 12 12.8
2018-Feb-20 23:32 022 8 gusting 11 12.8
2018-Feb-20 23:27 022 11 gusting 11 12.8
2018-Feb-20 23:22 12.8
2018-Feb-20 23:17 022 9 gusting 9 12.8
2018-Feb-20 23:12 022 6 gusting 11 12.8
2018-Feb-20 23:07 022 5 gusting 11 12.8
2018-Feb-20 23:02 022 6 gusting 11 12.8